Weather in Savynky

Ukraine / Chernihiv Region     51°45′40″N   32°28′24″E
temp.,
°C
wind,
m/s
gust,
m/s
humid.,
%
clouds,
%
prec.,
mm/h
press.,
hPa
HPBL,
m
5 march, fri
fri523:000nw499298 0.1 1007467
02:00−2wnw379584 0.1 1009190
05:00−4nw359671 0.0 1010100
08:00−4nnw259379 0.0 1012151
11:00−1nw359224 0.0 1013435
14:00−1nnw358658 0.0 1014705
17:00−3nw238698 0.0 101556
20:00−4nw239098 0.0 101752
6 march, sat
sat623:00−5wnw3390100 0.0 101872
02:00−6nnw3789100 0.0 1020211
05:00−9nnw358961 0.0 1020106
08:00−7nw498230 0.0 1022299
11:00−3nw466830 0.0 1022948
14:00−3wnw348064 0.1 1021735
17:00−4nw228681 0.2 102129
20:00−7w238840 0.2 102225
7 march, sun
sun723:00−7wsw35870 0.0 102297
02:00−8wsw410870 0.0 1020216
05:00−6sw6148467 0.0 1017415
08:00−3sw9178283 0.0 1013788
11:000wsw111785100 0.0 10091261
14:000w101793100 0.3 10081303
17:000w81494100 0.8 10071006
20:00−1w61298100 3.4 1007688
8 march, mon
mon823:00−1w71396100 0.9 1006784
02:00−4w5148396 1.1 1007632
05:00−6wnw5128749 0.0 1007476
08:00−6nw488460 0.1 1009690
11:00−4nw696838 0.0 10111256
14:00−3nw586335 0.0 10121289
17:00−5wnw35760 0.0 1013159
20:00−8w34790 0.0 101557
9 march, tue
tue923:00−8wnw23830 0.0 101635
02:00−9nnw239027 0.0 101759
05:00−10nnw369596 0.0 1018167
08:00−9nnw598997 0.0 1020618
11:00−7nnw588156 0.0 1022788
14:00−5nw467551 0.0 1024907
17:00−6wnw368410 0.0 1023203
20:00−9w338311 0.0 102546